Regional Weather Roundup
Issued by NWS

Home | Current Version | Previous Version | Graphics & Text | Print | Product List | Glossary On
Versions: 1 2 3 4 5 6 7 8 9 10 11 12 13 14 15 16 17 18 19 20 21 22 23 24 25 26 27 28 29 30 31 32 33 34 35 36 37 38 39 40 41 42 43 44 45 46 47 48 49 50
000
ASUS45 KTFX 012104
RWRMT
MONTANA REGIONAL WEATHER ROUNDUP
NATIONAL WEATHER SERVICE GREAT FALLS MT
300 PM MDT TUE SEP 01 2015

NOTE: "FAIR" INDICATES FEW OR NO CLOUDS BELOW 12000 FEET WITH NO
SIGNIFICANT WEATHER AND/OR OBSTRUCTIONS TO VISIBILITY.

MTZ001>007-043-012200-
WEST OF THE DIVIDE

CITY           SKY/WX    TMP DP  RH WIND       PRES   REMARKS
KALISPELL      PTCLDY    79  38  22 S12       29.82F
MISSOULA       MOSUNNY   78  41  26 VRB3      29.85F
BUTTE          MOSUNNY   78  22  12 SW15G21   29.95F
MULLAN PASS    SUNNY     61  33  35 VRB6      29.99S
DEER LODGE       N/A     79  28  15 W5        29.93F
EUREKA           N/A     73  37  27 S10G23    29.83F
HAMILTON         N/A     79  39  24 N6        29.84F
LIBBY            N/A     75  43  31 SE7       29.84F
$$

MTZ008-052>055-012200-
SOUTHWEST MONTANA

CITY           SKY/WX    TMP DP  RH WIND       PRES   REMARKS
BOZEMAN        SUNNY     82  37  20 N13       29.89F
DILLON         SUNNY     82  30  15 SW7       29.92F
W YELLOWSTONE  SUNNY     75  25  15 SW20G29   30.07F
$$

MTZ009-010-012-014-046-048-049-054-012200-
EAST SLOPES AND CENTRAL MONTANA

CITY           SKY/WX    TMP DP  RH WIND       PRES   REMARKS
CUT BANK       MOSUNNY   77  29  17 W25G39    29.79S
GREAT FALLS    MOSUNNY   82  32  16 SW20G31   29.82S
MALMSTROM AFB  PTSUNNY   80  33  17 SW18G30   29.82S
HELENA         MOSUNNY   83  36  18 NE5       29.84F
$$

MTZ011-013-016-021-045-047-050-051-012200-
NORTH CENTRAL MONTANA

CITY           SKY/WX    TMP DP  RH WIND       PRES   REMARKS
HAVRE          PTSUNNY   85  26  11 SW24G30   29.74F
LEWISTOWN      SUNNY     83  30  14 S10       29.85F
N BAR RANCH      N/A     81  39  22 E7        29.90F
CHINOOK          N/A     84  27  12 W17G23    29.74F
FORT BENTON      N/A     82  36  18 S10       29.79S
$$

MTZ017>020-022>027-061-062-012200-
NORTHEAST MONTANA

CITY           SKY/WX    TMP DP  RH WIND       PRES   REMARKS
GLASGOW        SUNNY     87  39  18 SW9G21    29.75S
JORDAN           N/A     89  34  14 W10       29.78F
SIDNEY         SUNNY     93  43  17 SW9G20    29.73F
WOLF POINT     SUNNY     89  41  18 SW10      29.75F
PLENTYWOOD       N/A     88  45  22 SW12G22   29.74F
POPLAR           N/A     88  43  20 SW13G21   29.75F
$$

MTZ028>42-056>058-012200-
SOUTHCENTRAL AND SOUTHEAST MONTANA

CITY           SKY/WX    TMP DP  RH WIND       PRES   REMARKS
BAKER          SUNNY     91  43  18 VRB7      29.82F
BILLINGS       MOSUNNY   88  27  11 W7        29.84F
LIVINGSTON     SUNNY     87  25  10 VRB6G18   29.86F
MILES CITY     SUNNY     91  37  15 SW6       29.78F
FORSYTH          N/A     90  34  13 W6        29.79F
$$

REGIONAL REPORTS...DAKOTAS

CITY           SKY/WX    TMP DP  RH WIND       PRES   REMARKS
WILLISTON      SUNNY     93  48  21 SW14      29.74F
MINOT          SUNNY     88  56  33 S10G21    29.77F
DICKINSON      SUNNY     88  57  34 SE12      29.79F
BISMARCK       SUNNY     88  61  40 SE12G20   29.80F
GRAND FORKS    SUNNY     86  54  33 S9G18     29.82F
FARGO          SUNNY     90  49  24 SE13      29.83F
BUFFALO SD       N/A     87  59  38 VRB3      29.77F
RAPID CITY     SUNNY     85  61  44 N8        29.85F
$$

REGIONAL REPORTS...WYOMING/IDAHO/WASHINGTON

CITY           SKY/WX    TMP DP  RH WIND       PRES   REMARKS
GILLETTE       SUNNY     90  29  11 NW12      29.91S
SHERIDAN       SUNNY     92  26   9 E5        29.85F
BUFFALO WY     SUNNY     90  27  10 E5        29.93F
CODY           SUNNY     84  28  13 SE16      29.90F
YELLOWSTONE LA   N/A     71  25  17 W9G25     30.18S
IDAHO FALLS    SUNNY     85  30  13 SW15G22   29.96F
SALMON         SUNNY     82  41  23 NW8       29.82F
BOISE          MOSUNNY   83  41  22 NW7       29.85F
SPOKANE        PTSUNNY   69  43  38 S5        29.84F
$$

REGIONAL REPORTS...ALBERTA

CITY           SKY/WX    TMP DP  RH WIND       PRES   REMARKS
$$

REGIONAL REPORTS...SASKATCHEWAN

CITY           SKY/WX    TMP DP  RH WIND       PRES   REMARKS
$$


USA.gov is the U.S. government's official web portal to all federal, state and local government web resources and services.